Time,TemperatureF,DewpointF,PressureIn,WindDirection,WindDirectionDegrees,WindSpeedMPH,WindSpeedGustMPH,Humidity,HourlyPrecipIn,Conditions,Clouds,dailyrainin,SoftwareType,DateUTC
2013-01-11 00:08:00,46.6,30.3,29.89,SW,225,0.0,0.0,53,0.00,,,0.00,WeatherCatV1.12B45,2013-01-11 08:08:00,
2013-01-11 00:13:00,46.6,29.8,29.89,SW,225,4.2,4.2,52,0.00,,,0.00,WeatherCatV1.12B45,2013-01-11 08:13:00,
2013-01-11 00:18:00,46.8,30.0,29.89,West,270,0.0,0.9,52,0.00,,,0.00,WeatherCatV1.12B45,2013-01-11 08:18:00,
2013-01-11 00:23:00,46.8,30.0,29.90,SW,225,0.0,0.0,52,0.00,,,0.00,WeatherCatV1.12B45,2013-01-11 08:23:00,
2013-01-11 00:28:00,46.8,30.4,29.90,NW,315,0.0,0.0,53,0.00,,,0.00,WeatherCatV1.12B45,2013-01-11 08:28:00,
2013-01-11 00:33:00,46.8,30.4,29.89,West,270,0.0,0.0,53,0.00,,,0.00,WeatherCatV1.12B45,2013-01-11 08:33:00,
2013-01-11 00:38:00,46.8,30.4,29.90,WNW,292,0.0,0.0,53,0.00,,,0.00,WeatherCatV1.12B45,2013-01-11 08:38:00,
2013-01-11 00:43:00,46.8,30.0,29.90,NNW,337,6.0,6.0,52,0.00,,,0.00,WeatherCatV1.12B45,2013-01-11 08:43:00,
2013-01-11 00:48:00,46.8,29.5,29.90,NW,315,0.0,0.0,51,0.00,,,0.00,WeatherCatV1.12B45,2013-01-11 08:48:00,
2013-01-11 00:53:00,46.8,29.5,29.90,NNW,337,0.0,0.0,51,0.00,,,0.00,WeatherCatV1.12B45,2013-01-11 08:53:00,
2013-01-11 00:58:00,46.6,28.9,29.90,NW,315,0.0,6.0,51,0.00,,,0.00,WeatherCatV1.12B45,2013-01-11 08:58:00,
2013-01-11 01:03:00,46.6,28.9,29.91,NNW,337,2.0,2.0,50,0.00,,,0.00,WeatherCatV1.12B45,2013-01-11 09:03:00,
2013-01-11 01:08:00,46.6,28.9,29.90,NNW,337,1.3,1.3,50,0.00,,,0.00,WeatherCatV1.12B45,2013-01-11 09:08:00,
2013-01-11 01:13:00,46.2,28.6,29.91,WNW,292,0.0,0.0,50,0.00,,,0.00,WeatherCatV1.12B45,2013-01-11 09:13:00,
2013-01-11 01:23:00,46.2,28.1,29.91,North,0,0.0,0.0,49,0.00,,,0.00,WeatherCatV1.12B45,2013-01-11 09:23:00,
2013-01-11 01:28:00,46.2,28.1,29.91,WSW,247,0.0,1.8,49,0.00,,,0.00,WeatherCatV1.12B45,2013-01-11 09:28:00,
2013-01-11 01:33:00,46.0,27.9,29.91,North,0,0.0,0.0,49,0.00,,,0.00,WeatherCatV1.12B45,2013-01-11 09:33:00,
2013-01-11 01:38:00,46.0,27.4,29.91,NNE,22,0.0,0.0,48,0.00,,,0.00,WeatherCatV1.12B45,2013-01-11 09:38:00,
2013-01-11 01:43:00,46.0,27.4,29.90,NE,45,6.7,6.7,48,0.00,,,0.00,WeatherCatV1.12B45,2013-01-11 09:43:00,
2013-01-11 01:48:00,46.0,27.4,29.90,NNE,22,0.0,0.0,48,0.00,,,0.00,WeatherCatV1.12B45,2013-01-11 09:48:00,
2013-01-11 01:53:00,46.0,27.4,29.90,NE,45,0.0,0.0,48,0.00,,,0.00,WeatherCatV1.12B45,2013-01-11 09:53:00,
2013-01-11 01:58:00,45.7,27.0,29.91,East,90,0.0,0.0,48,0.00,,,0.00,WeatherCatV1.12B45,2013-01-11 09:58:00,
2013-01-11 02:03:00,45.7,26.5,29.91,SSE,157,0.0,0.0,47,0.00,,,0.00,WeatherCatV1.12B45,2013-01-11 10:03:00,
2013-01-11 02:08:00,45.7,26.5,29.92,SE,135,0.0,0.0,47,0.00,,,0.00,WeatherCatV1.12B45,2013-01-11 10:08:00,
2013-01-11 02:13:00,45.7,26.5,29.91,NNE,22,0.9,0.9,47,0.00,,,0.00,WeatherCatV1.12B45,2013-01-11 10:13:00,
2013-01-11 02:18:00,45.7,26.5,29.91,SSE,157,0.0,0.0,47,0.00,,,0.00,WeatherCatV1.12B45,2013-01-11 10:18:00,
2013-01-11 02:23:00,45.7,26.0,29.92,NNW,337,0.0,0.0,46,0.00,,,0.00,WeatherCatV1.12B45,2013-01-11 10:23:00,
2013-01-11 02:28:00,45.7,26.0,29.92,WNW,292,0.0,0.0,46,0.00,,,0.00,WeatherCatV1.12B45,2013-01-11 10:28:00,
2013-01-11 02:33:00,45.7,26.0,29.92,NNE,22,0.0,0.0,46,0.00,,,0.00,WeatherCatV1.12B45,2013-01-11 10:33:00,
2013-01-11 02:38:00,45.5,25.8,29.93,ESE,112,0.0,0.0,46,0.00,,,0.00,WeatherCatV1.12B45,2013-01-11 10:38:00,
2013-01-11 02:43:00,45.7,26.0,29.92,West,270,0.0,0.0,46,0.00,,,0.00,WeatherCatV1.12B45,2013-01-11 10:43:00,
2013-01-11 02:48:00,45.7,26.0,29.93,West,270,6.9,6.9,46,0.00,,,0.00,WeatherCatV1.12B45,2013-01-11 10:48:00,
2013-01-11 02:53:00,46.0,26.3,29.93,SW,225,0.0,0.0,46,0.00,,,0.00,WeatherCatV1.12B45,2013-01-11 10:53:00,
2013-01-11 02:58:00,46.6,26.8,29.93,West,270,0.0,0.0,46,0.00,,,0.00,WeatherCatV1.12B45,2013-01-11 10:58:00,
2013-01-11 03:08:00,46.8,26.9,29.93,SW,225,6.5,6.5,46,0.00,,,0.00,WeatherCatV1.12B45,2013-01-11 11:08:00,
2013-01-11 03:13:00,46.8,26.5,29.93,West,270,0.0,0.0,45,0.00,,,0.00,WeatherCatV1.12B45,2013-01-11 11:13:00,
2013-01-11 03:18:00,46.9,26.5,29.93,SW,225,0.0,0.0,45,0.00,,,0.00,WeatherCatV1.12B45,2013-01-11 11:18:00,
2013-01-11 03:23:00,46.8,26.4,29.93,West,270,0.0,0.0,45,0.00,,,0.00,WeatherCatV1.12B45,2013-01-11 11:23:00,
2013-01-11 03:28:00,46.8,25.8,29.93,WNW,292,0.0,3.8,44,0.00,,,0.00,WeatherCatV1.12B45,2013-01-11 11:28:00,
2013-01-11 03:33:00,46.6,26.2,29.93,North,0,0.0,0.0,45,0.00,,,0.00,WeatherCatV1.12B45,2013-01-11 11:33:00,
2013-01-11 03:38:00,46.6,26.2,29.93,North,0,0.0,0.0,45,0.00,,,0.00,WeatherCatV1.12B45,2013-01-11 11:38:00,
2013-01-11 03:43:00,46.2,25.9,29.93,NNE,22,1.8,1.8,45,0.00,,,0.00,WeatherCatV1.12B45,2013-01-11 11:43:00,
2013-01-11 03:48:00,46.2,25.9,29.93,North,0,14.3,14.3,45,0.00,,,0.00,WeatherCatV1.12B45,2013-01-11 11:48:00,
2013-01-11 03:53:00,46.2,25.9,29.93,WNW,292,5.4,5.4,45,0.00,,,0.00,WeatherCatV1.12B45,2013-01-11 11:53:00,
2013-01-11 03:58:00,46.0,26.3,29.93,NW,315,8.1,8.1,46,0.00,,,0.00,WeatherCatV1.12B45,2013-01-11 11:58:00,
2013-01-11 04:03:00,46.0,26.3,29.93,NNW,337,2.2,2.2,46,0.00,,,0.00,WeatherCatV1.12B45,2013-01-11 12:03:00,
2013-01-11 04:08:00,46.0,26.3,29.93,North,0,6.0,6.0,46,0.00,,,0.00,WeatherCatV1.12B45,2013-01-11 12:08:00,
2013-01-11 04:13:00,46.0,26.3,29.93,North,0,0.0,0.0,46,0.00,,,0.00,WeatherCatV1.12B45,2013-01-11 12:13:00,
2013-01-11 04:18:00,46.0,26.3,29.93,North,0,6.5,6.5,46,0.00,,,0.00,WeatherCatV1.12B45,2013-01-11 12:18:00,
2013-01-11 04:23:00,45.9,26.1,29.93,North,0,0.0,0.0,46,0.00,,,0.00,WeatherCatV1.12B45,2013-01-11 12:23:00,
2013-01-11 04:28:00,45.7,26.5,29.94,North,0,1.6,6.3,47,0.00,,,0.00,WeatherCatV1.12B45,2013-01-11 12:28:00,
2013-01-11 04:33:00,45.7,26.5,29.94,NNE,22,4.5,4.5,47,0.00,,,0.00,WeatherCatV1.12B45,2013-01-11 12:33:00,
2013-01-11 04:38:00,45.5,26.3,29.94,North,0,5.4,5.4,47,0.00,,,0.00,WeatherCatV1.12B45,2013-01-11 12:38:00,
2013-01-11 04:43:00,45.3,26.7,29.94,NNE,22,1.6,1.6,48,0.00,,,0.00,WeatherCatV1.12B45,2013-01-11 12:43:00,
2013-01-11 04:48:00,45.3,26.7,29.94,North,0,5.4,5.4,48,0.00,,,0.00,WeatherCatV1.12B45,2013-01-11 12:48:00,
2013-01-11 04:53:00,45.1,26.5,29.94,ENE,67,0.0,0.0,48,0.00,,,0.00,WeatherCatV1.12B45,2013-01-11 12:53:00,
2013-01-11 05:03:00,45.1,26.5,29.95,NE,45,0.0,0.0,48,0.00,,,0.00,WeatherCatV1.12B45,2013-01-11 13:03:00,
2013-01-11 05:08:00,45.1,27.1,29.95,NNE,22,3.4,3.4,49,0.00,,,0.00,WeatherCatV1.12B45,2013-01-11 13:08:00,
2013-01-11 05:13:00,45.0,26.9,29.95,North,0,3.1,3.1,49,0.00,,,0.00,WeatherCatV1.12B45,2013-01-11 13:13:00,
2013-01-11 05:18:00,45.0,26.9,29.95,NW,315,3.1,3.1,49,0.00,,,0.00,WeatherCatV1.12B45,2013-01-11 13:18:00,
2013-01-11 05:28:00,45.0,26.9,29.95,North,0,0.0,3.8,49,0.00,,,0.00,WeatherCatV1.12B45,2013-01-11 13:28:00,
2013-01-11 05:33:00,44.8,26.8,29.95,North,0,6.3,6.3,49,0.00,,,0.00,WeatherCatV1.12B45,2013-01-11 13:33:00,
2013-01-11 05:38:00,44.8,26.8,29.95,North,0,0.0,0.0,49,0.00,,,0.00,WeatherCatV1.12B45,2013-01-11 13:38:00,
2013-01-11 05:43:00,44.8,26.8,29.95,North,0,0.0,0.0,49,0.00,,,0.00,WeatherCatV1.12B45,2013-01-11 13:43:00,
2013-01-11 05:48:00,44.6,27.1,29.95,NNW,337,0.0,0.0,50,0.00,,,0.00,WeatherCatV1.12B45,2013-01-11 13:48:00,
2013-01-11 05:53:00,44.4,27.0,29.96,NE,45,0.0,0.0,50,0.00,,,0.00,WeatherCatV1.12B45,2013-01-11 13:53:00,
2013-01-11 05:58:00,44.4,27.0,29.96,North,0,0.0,0.0,50,0.00,,,0.00,WeatherCatV1.12B45,2013-01-11 13:58:00,
2013-01-11 06:03:00,44.4,27.0,29.96,North,0,0.0,0.0,50,0.00,,,0.00,WeatherCatV1.12B45,2013-01-11 14:03:00,
2013-01-11 06:08:00,44.4,27.0,29.96,North,0,0.0,0.0,50,0.00,,,0.00,WeatherCatV1.12B45,2013-01-11 14:08:00,
2013-01-11 06:13:00,44.2,26.8,29.96,NNW,337,0.0,0.0,50,0.00,,,0.00,WeatherCatV1.12B45,2013-01-11 14:13:00,
2013-01-11 06:18:00,44.2,27.2,29.96,North,0,0.0,0.0,51,0.00,,,0.00,WeatherCatV1.12B45,2013-01-11 14:18:00,
2013-01-11 06:23:00,44.1,27.1,29.96,North,0,0.0,0.0,51,0.00,,,0.00,WeatherCatV1.12B45,2013-01-11 14:23:00,
2013-01-11 06:28:00,43.9,26.9,29.96,NNE,22,0.0,0.0,51,0.00,,,0.00,WeatherCatV1.12B45,2013-01-11 14:28:00,
2013-01-11 06:33:00,43.9,26.9,29.96,North,0,0.0,0.0,51,0.00,,,0.00,WeatherCatV1.12B45,2013-01-11 14:33:00,
2013-01-11 06:38:00,43.7,26.8,29.96,North,0,0.0,0.0,51,0.00,,,0.00,WeatherCatV1.12B45,2013-01-11 14:38:00,
2013-01-11 06:43:00,43.5,27.0,29.96,North,0,0.0,0.0,52,0.00,,,0.00,WeatherCatV1.12B45,2013-01-11 14:43:00,
2013-01-11 06:48:00,43.5,27.0,29.97,North,0,0.0,0.0,52,0.00,,,0.00,WeatherCatV1.12B45,2013-01-11 14:48:00,
2013-01-11 06:53:00,43.5,27.0,29.97,NNE,22,0.0,0.0,52,0.00,,,0.00,WeatherCatV1.12B45,2013-01-11 14:53:00,
2013-01-11 06:58:00,43.3,26.9,29.97,North,0,0.0,0.0,52,0.00,,,0.00,WeatherCatV1.12B45,2013-01-11 14:58:00,
2013-01-11 07:03:00,43.3,27.3,29.97,North,0,0.0,0.0,53,0.00,,,0.00,WeatherCatV1.12B45,2013-01-11 15:03:00,
2013-01-11 07:08:00,43.3,27.3,29.97,North,0,0.0,0.0,53,0.00,,,0.00,WeatherCatV1.12B45,2013-01-11 15:08:00,
2013-01-11 07:13:00,43.2,27.1,29.98,North,0,0.0,0.0,53,0.00,,,0.00,WeatherCatV1.12B45,2013-01-11 15:13:00,
2013-01-11 07:18:00,43.2,27.6,29.98,NNE,22,0.0,0.0,54,0.00,,,0.00,WeatherCatV1.12B45,2013-01-11 15:18:00,
2013-01-11 07:23:00,43.2,27.6,29.98,NNE,22,0.0,0.0,54,0.00,,,0.00,WeatherCatV1.12B45,2013-01-11 15:23:00,
2013-01-11 07:28:00,43.0,27.4,29.98,NNE,22,0.0,0.0,54,0.00,,,0.00,WeatherCatV1.12B45,2013-01-11 15:28:00,
2013-01-11 07:33:00,43.0,27.4,29.98,NNE,22,0.0,0.0,54,0.00,,,0.00,WeatherCatV1.12B45,2013-01-11 15:33:00,
2013-01-11 07:38:00,43.0,27.4,29.97,North,0,2.2,2.2,54,0.00,,,0.00,WeatherCatV1.12B45,2013-01-11 15:38:00,
2013-01-11 07:43:00,42.8,27.7,29.97,NNE,22,0.0,0.9,55,0.00,,,0.00,WeatherCatV1.12B45,2013-01-11 15:43:00,
2013-01-11 07:48:00,43.0,27.8,29.97,NNE,22,0.0,0.0,55,0.00,,,0.00,WeatherCatV1.12B45,2013-01-11 15:48:00,
2013-01-11 07:53:00,43.0,27.8,29.97,NNE,22,0.0,0.0,55,0.00,,,0.00,WeatherCatV1.12B45,2013-01-11 15:53:00,
2013-01-11 07:58:00,43.0,27.8,29.97,NNE,22,0.0,0.0,55,0.00,,,0.00,WeatherCatV1.12B45,2013-01-11 15:58:00,
2013-01-11 08:03:00,43.2,28.0,29.98,NNE,22,0.0,0.0,55,0.00,,,0.00,WeatherCatV1.12B45,2013-01-11 16:03:00,
2013-01-11 08:08:00,43.0,27.8,29.98,North,0,0.0,0.0,55,0.00,,,0.00,WeatherCatV1.12B45,2013-01-11 16:08:00,
2013-01-11 08:13:00,43.3,28.2,29.98,North,0,0.0,0.0,55,0.00,,,0.00,WeatherCatV1.12B45,2013-01-11 16:13:00,
2013-01-11 08:18:00,43.5,28.4,29.98,North,0,0.0,0.0,55,0.00,,,0.00,WeatherCatV1.12B45,2013-01-11 16:18:00,
2013-01-11 08:23:00,43.5,28.4,29.98,NNE,22,0.0,0.0,55,0.00,,,0.00,WeatherCatV1.12B45,2013-01-11 16:23:00,
2013-01-11 08:28:00,44.2,29.0,29.98,NNE,22,0.0,0.0,55,0.00,,,0.00,WeatherCatV1.12B45,2013-01-11 16:28:00,
2013-01-11 08:33:00,44.4,29.2,29.98,North,0,0.0,0.0,55,0.00,,,0.00,WeatherCatV1.12B45,2013-01-11 16:33:00,
2013-01-11 08:38:00,44.8,29.6,29.98,NNE,22,0.0,0.0,55,0.00,,,0.00,WeatherCatV1.12B45,2013-01-11 16:38:00,
2013-01-11 08:43:00,45.3,30.0,29.98,NNE,22,0.0,0.0,55,0.00,,,0.00,WeatherCatV1.12B45,2013-01-11 16:43:00,
2013-01-11 08:48:00,45.5,30.2,29.99,North,0,0.0,0.0,55,0.00,,,0.00,WeatherCatV1.12B45,2013-01-11 16:48:00,
2013-01-11 08:53:00,46.0,29.9,29.98,North,0,0.0,2.2,54,0.00,,,0.00,WeatherCatV1.12B45,2013-01-11 16:53:00,
2013-01-11 08:58:00,46.6,30.3,29.98,NW,315,0.0,0.0,53,0.00,,,0.00,WeatherCatV1.12B45,2013-01-11 16:58:00,
2013-01-11 09:03:00,46.9,30.1,29.99,North,0,2.5,2.5,52,0.00,,,0.00,WeatherCatV1.12B45,2013-01-11 17:03:00,
2013-01-11 09:08:00,47.1,30.3,29.99,North,0,0.0,0.0,52,0.00,,,0.00,WeatherCatV1.12B45,2013-01-11 17:08:00,
2013-01-11 09:13:00,47.8,31.0,29.99,NW,315,0.0,0.0,52,0.00,,,0.00,WeatherCatV1.12B45,2013-01-11 17:13:00,
2013-01-11 09:18:00,48.4,31.0,29.99,NW,315,0.0,0.0,51,0.00,,,0.00,WeatherCatV1.12B45,2013-01-11 17:18:00,
2013-01-11 09:23:00,48.7,30.9,29.99,West,270,0.0,0.0,51,0.00,,,0.00,WeatherCatV1.12B45,2013-01-11 17:23:00,
2013-01-11 09:28:00,49.1,31.3,29.99,SW,225,0.0,0.0,50,0.00,,,0.00,WeatherCatV1.12B45,2013-01-11 17:28:00,
2013-01-11 09:33:00,49.6,31.8,29.99,NNW,337,0.0,0.0,50,0.00,,,0.00,WeatherCatV1.12B45,2013-01-11 17:33:00,
2013-01-11 09:38:00,50.0,32.2,29.99,North,0,0.7,1.3,49,0.00,,,0.00,WeatherCatV1.12B45,2013-01-11 17:38:00,
2013-01-11 09:43:00,51.1,32.0,29.98,NE,45,0.0,0.0,48,0.00,,,0.00,WeatherCatV1.12B45,2013-01-11 17:43:00,
2013-01-11 09:48:00,52.0,32.8,29.98,West,270,0.0,0.0,48,0.00,,,0.00,WeatherCatV1.12B45,2013-01-11 17:48:00,
2013-01-11 09:53:00,52.2,30.8,29.98,SSW,202,0.0,0.0,45,0.00,,,0.00,WeatherCatV1.12B45,2013-01-11 17:53:00,
2013-01-11 09:58:00,52.3,30.4,29.98,SSW,202,0.0,0.0,43,0.00,,,0.00,WeatherCatV1.12B45,2013-01-11 17:58:00,
2013-01-11 10:03:00,52.3,30.4,29.98,NNE,22,4.7,4.7,43,0.00,,,0.00,WeatherCatV1.12B45,2013-01-11 18:03:00,
2013-01-11 10:08:00,52.9,30.9,29.98,SSW,202,1.6,1.6,43,0.00,,,0.00,WeatherCatV1.12B45,2013-01-11 18:08:00,
2013-01-11 10:13:00,52.7,30.1,29.98,North,0,0.0,0.0,42,0.00,,,0.00,WeatherCatV1.12B45,2013-01-11 18:13:00,
2013-01-11 10:18:00,52.9,30.3,29.98,West,270,1.1,1.1,42,0.00,,,0.00,WeatherCatV1.12B45,2013-01-11 18:18:00,
2013-01-11 10:23:00,53.2,30.8,29.98,North,0,0.4,0.4,42,0.00,,,0.00,WeatherCatV1.12B45,2013-01-11 18:23:00,
2013-01-11 10:28:00,53.8,31.1,29.98,NNW,337,6.7,6.7,42,0.00,,,0.00,WeatherCatV1.12B45,2013-01-11 18:28:00,
2013-01-11 10:33:00,54.3,31.6,29.97,NNE,22,0.0,0.0,42,0.00,,,0.00,WeatherCatV1.12B45,2013-01-11 18:33:00,
2013-01-11 10:38:00,54.9,31.7,29.96,North,0,8.9,8.9,41,0.00,,,0.00,WeatherCatV1.12B45,2013-01-11 18:38:00,
2013-01-11 10:43:00,55.2,30.6,29.96,North,0,0.0,0.0,39,0.00,,,0.00,WeatherCatV1.12B45,2013-01-11 18:43:00,
2013-01-11 10:48:00,55.2,30.6,29.96,West,270,0.0,0.0,39,0.00,,,0.00,WeatherCatV1.12B45,2013-01-11 18:48:00,
2013-01-11 10:53:00,55.0,29.7,29.96,SSW,202,3.6,3.6,38,0.00,,,0.00,WeatherCatV1.12B45,2013-01-11 18:53:00,
2013-01-11 10:58:00,54.3,28.4,29.95,SW,225,0.7,4.5,37,0.00,,,0.00,WeatherCatV1.12B45,2013-01-11 18:58:00,
2013-01-11 11:03:00,54.0,28.8,29.95,WSW,247,0.0,0.0,38,0.00,,,0.00,WeatherCatV1.12B45,2013-01-11 19:03:00,
2013-01-11 11:08:00,53.8,28.3,29.95,SW,225,6.3,6.3,38,0.00,,,0.00,WeatherCatV1.12B45,2013-01-11 19:08:00,
2013-01-11 11:13:00,53.2,28.1,29.94,SSW,202,3.1,3.1,38,0.00,,,0.00,WeatherCatV1.12B45,2013-01-11 19:13:00,
2013-01-11 11:18:00,53.2,28.1,29.95,SW,225,3.8,3.8,38,0.00,,,0.00,WeatherCatV1.12B45,2013-01-11 19:18:00,
2013-01-11 11:23:00,53.4,29.0,29.94,SW,225,0.9,0.9,39,0.00,,,0.00,WeatherCatV1.12B45,2013-01-11 19:23:00,
2013-01-11 11:28:00,53.4,28.3,29.94,SW,225,2.9,5.1,38,0.00,,,0.00,WeatherCatV1.12B45,2013-01-11 19:28:00,
2013-01-11 11:33:00,53.2,28.8,29.93,West,270,6.0,6.0,39,0.00,,,0.00,WeatherCatV1.12B45,2013-01-11 19:33:00,
2013-01-11 11:38:00,52.5,29.2,29.93,West,270,6.9,6.9,40,0.00,,,0.00,WeatherCatV1.12B45,2013-01-11 19:38:00,
2013-01-11 11:43:00,52.3,29.3,29.92,SW,225,7.4,7.4,41,0.00,,,0.00,WeatherCatV1.12B45,2013-01-11 19:43:00,
2013-01-11 11:48:00,52.2,29.1,29.92,SW,225,4.0,4.0,41,0.00,,,0.00,WeatherCatV1.12B45,2013-01-11 19:48:00,
2013-01-11 11:53:00,52.2,28.9,29.92,SSW,202,4.9,6.5,41,0.00,,,0.00,WeatherCatV1.12B45,2013-01-11 19:53:00,
2013-01-11 11:58:00,52.2,29.1,29.92,SW,225,6.3,6.3,41,0.00,,,0.00,WeatherCatV1.12B45,2013-01-11 19:58:00,
2013-01-11 12:03:00,52.2,29.1,29.91,SW,225,4.0,4.0,41,0.00,,,0.00,WeatherCatV1.12B45,2013-01-11 20:03:00,
2013-01-11 12:08:00,52.0,29.5,29.91,WSW,247,9.4,9.4,41,0.00,,,0.00,WeatherCatV1.12B45,2013-01-11 20:08:00,
2013-01-11 12:13:00,52.3,29.8,29.91,SW,225,4.5,7.4,42,0.00,,,0.00,WeatherCatV1.12B45,2013-01-11 20:13:00,
2013-01-11 12:18:00,52.3,29.8,29.90,WSW,247,6.0,6.0,42,0.00,,,0.00,WeatherCatV1.12B45,2013-01-11 20:18:00,
2013-01-11 12:23:00,52.7,30.0,29.90,West,270,2.9,2.9,42,0.00,,,0.00,WeatherCatV1.12B45,2013-01-11 20:23:00,
2013-01-11 12:28:00,52.7,29.6,29.90,SSW,202,7.6,7.6,41,0.00,,,0.00,WeatherCatV1.12B45,2013-01-11 20:28:00,
2013-01-11 12:38:00,53.1,29.4,29.89,WSW,247,4.5,6.5,39,0.00,,,0.00,WeatherCatV1.12B45,2013-01-11 20:38:00,
2013-01-11 12:43:00,52.7,29.0,29.89,SW,225,12.3,12.3,40,0.00,,,0.00,WeatherCatV1.12B45,2013-01-11 20:43:00,
2013-01-11 12:48:00,52.9,29.2,29.89,SSW,202,5.4,5.4,40,0.00,,,0.00,WeatherCatV1.12B45,2013-01-11 20:48:00,
2013-01-11 12:53:00,52.7,29.0,29.88,SW,225,17.0,17.0,39,0.00,,,0.00,WeatherCatV1.12B45,2013-01-11 20:53:00,
2013-01-11 12:58:00,52.9,29.2,29.88,SW,225,8.3,9.2,40,0.00,,,0.00,WeatherCatV1.12B45,2013-01-11 20:58:00,
2013-01-11 13:03:00,52.7,29.0,29.88,SSW,202,4.7,4.7,40,0.00,,,0.00,WeatherCatV1.12B45,2013-01-11 21:03:00,
2013-01-11 13:08:00,52.5,28.9,29.88,WSW,247,7.8,9.6,40,0.00,,,0.00,WeatherCatV1.12B45,2013-01-11 21:08:00,
2013-01-11 13:13:00,52.5,29.4,29.88,SSW,202,6.9,6.9,41,0.00,,,0.00,WeatherCatV1.12B45,2013-01-11 21:13:00,
2013-01-11 13:18:00,52.7,28.3,29.87,South,180,3.6,3.6,39,0.00,,,0.00,WeatherCatV1.12B45,2013-01-11 21:18:00,
2013-01-11 13:23:00,53.1,28.5,29.88,SW,225,9.2,10.1,38,0.00,,,0.00,WeatherCatV1.12B45,2013-01-11 21:23:00,
2013-01-11 13:28:00,53.2,28.1,29.88,SW,225,11.0,11.0,38,0.00,,,0.00,WeatherCatV1.12B45,2013-01-11 21:28:00,
2013-01-11 13:33:00,53.2,28.1,29.88,SSW,202,8.3,8.3,38,0.00,,,0.00,WeatherCatV1.12B45,2013-01-11 21:33:00,
2013-01-11 13:38:00,53.4,29.0,29.88,WSW,247,9.4,9.4,39,0.00,,,0.00,WeatherCatV1.12B45,2013-01-11 21:38:00,
2013-01-11 13:43:00,53.2,29.5,29.88,WSW,247,9.4,9.4,40,0.00,,,0.00,WeatherCatV1.12B45,2013-01-11 21:43:00,
2013-01-11 13:48:00,53.2,28.8,29.88,WSW,247,6.9,6.9,39,0.00,,,0.00,WeatherCatV1.12B45,2013-01-11 21:48:00,
2013-01-11 13:53:00,53.2,29.5,29.88,WSW,247,8.7,9.2,40,0.00,,,0.00,WeatherCatV1.12B45,2013-01-11 21:53:00,
2013-01-11 13:58:00,52.9,29.8,29.87,SW,225,8.3,8.3,41,0.00,,,0.00,WeatherCatV1.12B45,2013-01-11 21:58:00,
2013-01-11 14:03:00,52.9,30.9,29.87,SSW,202,8.5,8.5,43,0.00,,,0.00,WeatherCatV1.12B45,2013-01-11 22:03:00,
2013-01-11 14:08:00,53.4,31.4,29.87,WSW,247,7.4,11.6,43,0.00,,,0.00,WeatherCatV1.12B45,2013-01-11 22:08:00,
2013-01-11 14:13:00,53.4,31.4,29.87,SW,225,9.2,9.2,43,0.00,,,0.00,WeatherCatV1.12B45,2013-01-11 22:13:00,
2013-01-11 14:18:00,53.2,30.6,29.86,West,270,4.9,9.2,42,0.00,,,0.00,WeatherCatV1.12B45,2013-01-11 22:18:00,
2013-01-11 14:23:00,53.2,30.6,29.86,SSW,202,5.1,7.4,42,0.00,,,0.00,WeatherCatV1.12B45,2013-01-11 22:23:00,
2013-01-11 14:28:00,53.1,31.0,29.86,SSW,202,1.1,1.1,43,0.00,,,0.00,WeatherCatV1.12B45,2013-01-11 22:28:00,
2013-01-11 14:33:00,53.2,31.2,29.86,WSW,247,8.1,8.1,43,0.00,,,0.00,WeatherCatV1.12B45,2013-01-11 22:33:00,
2013-01-11 14:38:00,53.2,31.2,29.85,SW,225,9.8,9.8,43,0.00,,,0.00,WeatherCatV1.12B45,2013-01-11 22:38:00,
2013-01-11 14:48:00,53.8,31.7,29.85,WSW,247,5.6,5.6,43,0.00,,,0.00,WeatherCatV1.12B45,2013-01-11 22:48:00,
2013-01-11 14:53:00,53.8,31.7,29.85,SSW,202,1.1,3.4,43,0.00,,,0.00,WeatherCatV1.12B45,2013-01-11 22:53:00,
2013-01-11 14:58:00,53.8,31.7,29.85,SW,225,3.8,3.8,43,0.00,,,0.00,WeatherCatV1.12B45,2013-01-11 22:58:00,
2013-01-11 15:03:00,53.6,31.5,29.85,WNW,292,6.3,6.3,43,0.00,,,0.00,WeatherCatV1.12B45,2013-01-11 23:03:00,
2013-01-11 15:08:00,53.4,31.4,29.85,SW,225,6.5,6.5,43,0.00,,,0.00,WeatherCatV1.12B45,2013-01-11 23:08:00,
2013-01-11 15:13:00,53.4,31.9,29.85,SW,225,9.6,9.6,44,0.00,,,0.00,WeatherCatV1.12B45,2013-01-11 23:13:00,
2013-01-11 15:18:00,53.6,30.4,29.85,West,270,11.0,11.0,41,0.00,,,0.00,WeatherCatV1.12B45,2013-01-11 23:18:00,
2013-01-11 15:23:00,53.4,30.2,29.85,WSW,247,9.8,10.5,41,0.00,,,0.00,WeatherCatV1.12B45,2013-01-11 23:23:00,
2013-01-11 15:28:00,53.8,31.1,29.85,West,270,5.1,5.1,42,0.00,,,0.00,WeatherCatV1.12B45,2013-01-11 23:28:00,
2013-01-11 15:33:00,53.8,31.1,29.85,West,270,8.5,8.5,42,0.00,,,0.00,WeatherCatV1.12B45,2013-01-11 23:33:00,
2013-01-11 15:38:00,53.4,31.4,29.85,West,270,8.1,8.1,43,0.00,,,0.00,WeatherCatV1.12B45,2013-01-11 23:38:00,
2013-01-11 15:43:00,53.2,31.7,29.85,West,270,2.7,2.7,44,0.00,,,0.00,WeatherCatV1.12B45,2013-01-11 23:43:00,
2013-01-11 15:48:00,52.9,31.4,29.85,SSW,202,0.0,0.0,44,0.00,,,0.00,WeatherCatV1.12B45,2013-01-11 23:48:00,
2013-01-11 15:53:00,52.9,31.4,29.85,SW,225,6.0,6.0,44,0.00,,,0.00,WeatherCatV1.12B45,2013-01-11 23:53:00,
2013-01-11 15:58:00,52.9,31.4,29.85,WSW,247,5.1,5.1,44,0.00,,,0.00,WeatherCatV1.12B45,2013-01-11 23:58:00,
2013-01-11 16:03:00,52.9,32.0,29.85,WSW,247,4.5,4.5,45,0.00,,,0.00,WeatherCatV1.12B45,2013-01-12 00:03:00,
2013-01-11 16:13:00,52.9,33.7,29.85,WNW,292,3.4,3.4,48,0.00,,,0.00,WeatherCatV1.12B45,2013-01-12 00:13:00,
2013-01-11 16:18:00,52.9,33.7,29.84,SW,225,1.3,1.3,48,0.00,,,0.00,WeatherCatV1.12B45,2013-01-12 00:18:00,
2013-01-11 16:28:00,53.2,33.4,29.84,WSW,247,13.2,13.2,47,0.00,,,0.00,WeatherCatV1.12B45,2013-01-12 00:28:00,
2013-01-11 16:33:00,53.1,34.4,29.83,West,270,5.1,5.1,49,0.00,,,0.00,WeatherCatV1.12B45,2013-01-12 00:33:00,
2013-01-11 16:38:00,52.9,34.8,29.83,West,270,0.0,6.7,50,0.00,,,0.00,WeatherCatV1.12B45,2013-01-12 00:38:00,
2013-01-11 16:43:00,52.9,35.2,29.84,West,270,3.6,3.6,51,0.00,,,0.00,WeatherCatV1.12B45,2013-01-12 00:43:00,
2013-01-11 16:48:00,52.9,35.2,29.84,WSW,247,3.6,3.6,51,0.00,,,0.00,WeatherCatV1.12B45,2013-01-12 00:48:00,
2013-01-11 16:53:00,52.9,35.2,29.84,West,270,3.4,3.4,51,0.00,,,0.00,WeatherCatV1.12B45,2013-01-12 00:53:00,
2013-01-11 16:58:00,52.7,35.1,29.84,West,270,0.0,0.0,51,0.00,,,0.00,WeatherCatV1.12B45,2013-01-12 00:58:00,
2013-01-11 17:03:00,52.9,35.7,29.85,West,270,3.4,3.4,52,0.00,,,0.00,WeatherCatV1.12B45,2013-01-12 01:03:00,
2013-01-11 17:08:00,52.5,35.3,29.84,NNW,337,2.5,2.5,52,0.00,,,0.00,WeatherCatV1.12B45,2013-01-12 01:08:00,
2013-01-11 17:13:00,52.7,34.6,29.85,NNE,22,2.9,2.9,50,0.00,,,0.00,WeatherCatV1.12B45,2013-01-12 01:13:00,
2013-01-11 17:18:00,52.7,32.4,29.85,North,0,5.6,5.6,46,0.00,,,0.00,WeatherCatV1.12B45,2013-01-12 01:18:00,
2013-01-11 17:23:00,52.5,30.5,29.85,North,0,1.3,5.4,43,0.00,,,0.00,WeatherCatV1.12B45,2013-01-12 01:23:00,
2013-01-11 17:28:00,52.5,30.5,29.85,North,0,4.5,4.5,43,0.00,,,0.00,WeatherCatV1.12B45,2013-01-12 01:28:00,
2013-01-11 17:33:00,52.5,30.0,29.85,North,0,4.5,4.5,42,0.00,,,0.00,WeatherCatV1.12B45,2013-01-12 01:33:00,
2013-01-11 17:38:00,52.3,29.3,29.85,NNE,22,3.4,3.4,41,0.00,,,0.00,WeatherCatV1.12B45,2013-01-12 01:38:00,
2013-01-11 17:43:00,52.3,29.3,29.85,NNE,22,0.0,0.0,41,0.00,,,0.00,WeatherCatV1.12B45,2013-01-12 01:43:00,
2013-01-11 17:48:00,52.2,28.5,29.85,North,0,6.0,6.0,40,0.00,,,0.00,WeatherCatV1.12B45,2013-01-12 01:48:00,
2013-01-11 17:53:00,52.0,28.4,29.85,NNW,337,8.9,8.9,40,0.00,,,0.00,WeatherCatV1.12B45,2013-01-12 01:53:00,
2013-01-11 17:58:00,51.8,27.5,29.85,NNW,337,0.7,0.7,39,0.00,,,0.00,WeatherCatV1.12B45,2013-01-12 01:58:00,
2013-01-11 18:03:00,51.6,27.4,29.85,NNE,22,1.8,1.8,39,0.00,,,0.00,WeatherCatV1.12B45,2013-01-12 02:03:00,
2013-01-11 18:08:00,51.4,27.2,29.85,North,0,0.0,0.0,39,0.00,,,0.00,WeatherCatV1.12B45,2013-01-12 02:08:00,
2013-01-11 18:13:00,51.4,27.2,29.85,NNW,337,3.1,3.1,39,0.00,,,0.00,WeatherCatV1.12B45,2013-01-12 02:13:00,
2013-01-11 18:18:00,51.3,27.0,29.85,North,0,2.5,2.5,39,0.00,,,0.00,WeatherCatV1.12B45,2013-01-12 02:18:00,
2013-01-11 18:23:00,51.1,26.9,29.85,NNE,22,0.0,2.5,39,0.00,,,0.00,WeatherCatV1.12B45,2013-01-12 02:23:00,
2013-01-11 18:28:00,50.9,26.0,29.85,NNW,337,1.1,1.1,38,0.00,,,0.00,WeatherCatV1.12B45,2013-01-12 02:28:00,
2013-01-11 18:33:00,50.7,25.9,29.85,North,0,0.0,0.9,38,0.00,,,0.00,WeatherCatV1.12B45,2013-01-12 02:33:00,
2013-01-11 18:38:00,50.7,25.9,29.85,North,0,4.7,4.7,38,0.00,,,0.00,WeatherCatV1.12B45,2013-01-12 02:38:00,
2013-01-11 18:43:00,50.5,25.7,29.85,North,0,0.0,0.0,38,0.00,,,0.00,WeatherCatV1.12B45,2013-01-12 02:43:00,
2013-01-11 18:48:00,50.5,25.7,29.85,North,0,10.1,10.1,38,0.00,,,0.00,WeatherCatV1.12B45,2013-01-12 02:48:00,
2013-01-11 18:53:00,50.4,25.6,29.86,NNE,22,5.4,5.4,38,0.00,,,0.00,WeatherCatV1.12B45,2013-01-12 02:53:00,
2013-01-11 18:58:00,50.2,25.4,29.86,NE,45,2.5,2.5,38,0.00,,,0.00,WeatherCatV1.12B45,2013-01-12 02:58:00,
2013-01-11 19:03:00,50.2,25.4,29.85,North,0,11.2,11.2,38,0.00,,,0.00,WeatherCatV1.12B45,2013-01-12 03:03:00,
2013-01-11 19:08:00,49.8,25.1,29.86,NNE,22,6.9,8.7,38,0.00,,,0.00,WeatherCatV1.12B45,2013-01-12 03:08:00,
2013-01-11 19:13:00,49.6,24.9,29.86,NNE,22,2.0,2.0,38,0.00,,,0.00,WeatherCatV1.12B45,2013-01-12 03:13:00,
2013-01-11 19:18:00,49.6,24.9,29.86,NNE,22,12.1,15.0,38,0.00,,,0.00,WeatherCatV1.12B45,2013-01-12 03:18:00,
2013-01-11 19:23:00,49.3,24.6,29.86,North,0,0.7,15.4,38,0.00,,,0.00,WeatherCatV1.12B45,2013-01-12 03:23:00,
2013-01-11 19:28:00,49.3,24.6,29.86,North,0,6.9,6.9,38,0.00,,,0.00,WeatherCatV1.12B45,2013-01-12 03:28:00,
2013-01-11 19:33:00,49.3,25.3,29.85,North,0,0.0,0.0,39,0.00,,,0.00,WeatherCatV1.12B45,2013-01-12 03:33:00,
2013-01-11 19:38:00,49.1,25.1,29.85,North,0,10.1,10.1,39,0.00,,,0.00,WeatherCatV1.12B45,2013-01-12 03:38:00,
2013-01-11 19:43:00,48.9,24.9,29.85,NE,45,2.0,5.6,39,0.00,,,0.00,WeatherCatV1.12B45,2013-01-12 03:43:00,
2013-01-11 19:48:00,48.9,24.9,29.85,NNW,337,4.7,4.7,39,0.00,,,0.00,WeatherCatV1.12B45,2013-01-12 03:48:00,
2013-01-11 19:53:00,48.7,24.8,29.85,North,0,8.7,8.7,39,0.00,,,0.00,WeatherCatV1.12B45,2013-01-12 03:53:00,
2013-01-11 19:58:00,48.7,24.8,29.85,North,0,6.5,6.5,39,0.00,,,0.00,WeatherCatV1.12B45,2013-01-12 03:58:00,
2013-01-11 20:03:00,48.7,24.6,29.86,North,0,4.0,4.0,39,0.00,,,0.00,WeatherCatV1.12B45,2013-01-12 04:03:00,
2013-01-11 20:08:00,48.6,25.3,29.86,North,0,6.3,8.3,40,0.00,,,0.00,WeatherCatV1.12B45,2013-01-12 04:08:00,
2013-01-11 20:13:00,48.4,25.1,29.85,NNE,22,3.8,3.8,40,0.00,,,0.00,WeatherCatV1.12B45,2013-01-12 04:13:00,
2013-01-11 20:18:00,48.4,24.5,29.85,North,0,0.0,3.8,39,0.00,,,0.00,WeatherCatV1.12B45,2013-01-12 04:18:00,
2013-01-11 20:23:00,48.2,25.0,29.85,NNW,337,11.4,11.4,40,0.00,,,0.00,WeatherCatV1.12B45,2013-01-12 04:23:00,
2013-01-11 20:28:00,48.2,25.0,29.86,NNW,337,0.0,0.0,40,0.00,,,0.00,WeatherCatV1.12B45,2013-01-12 04:28:00,
2013-01-11 20:33:00,48.0,24.2,29.86,NNE,22,0.0,5.1,39,0.00,,,0.00,WeatherCatV1.12B45,2013-01-12 04:33:00,
2013-01-11 20:38:00,48.0,24.2,29.86,North,0,0.0,4.7,39,0.00,,,0.00,WeatherCatV1.12B45,2013-01-12 04:38:00,
2013-01-11 20:43:00,48.0,23.5,29.86,NW,315,3.4,3.4,38,0.00,,,0.00,WeatherCatV1.12B45,2013-01-12 04:43:00,
2013-01-11 20:48:00,48.0,23.5,29.86,NNW,337,6.5,10.5,38,0.00,,,0.00,WeatherCatV1.12B45,2013-01-12 04:48:00,
2013-01-11 20:53:00,48.2,23.6,29.86,North,0,0.9,0.9,38,0.00,,,0.00,WeatherCatV1.12B45,2013-01-12 04:53:00,
2013-01-11 20:58:00,48.2,23.6,29.86,North,0,2.9,2.9,38,0.00,,,0.00,WeatherCatV1.12B45,2013-01-12 04:58:00,
2013-01-11 21:03:00,48.0,23.5,29.87,NNW,337,3.8,8.1,38,0.00,,,0.00,WeatherCatV1.12B45,2013-01-12 05:03:00,
2013-01-11 21:08:00,48.0,24.2,29.86,NNW,337,10.3,10.3,39,0.00,,,0.00,WeatherCatV1.12B45,2013-01-12 05:08:00,
2013-01-11 21:13:00,48.0,24.2,29.86,NE,45,0.0,0.0,39,0.00,,,0.00,WeatherCatV1.12B45,2013-01-12 05:13:00,
2013-01-11 21:18:00,48.0,24.2,29.86,North,0,0.0,6.7,39,0.00,,,0.00,WeatherCatV1.12B45,2013-01-12 05:18:00,
2013-01-11 21:23:00,48.0,24.2,29.86,North,0,1.6,5.1,39,0.00,,,0.00,WeatherCatV1.12B45,2013-01-12 05:23:00,
2013-01-11 21:28:00,47.8,24.7,29.86,North,0,0.0,0.0,40,0.00,,,0.00,WeatherCatV1.12B45,2013-01-12 05:28:00,
2013-01-11 21:33:00,47.8,24.7,29.87,NNE,22,0.0,0.0,40,0.00,,,0.00,WeatherCatV1.12B45,2013-01-12 05:33:00,
2013-01-11 21:38:00,47.7,24.5,29.87,North,0,3.1,3.1,40,0.00,,,0.00,WeatherCatV1.12B45,2013-01-12 05:38:00,
2013-01-11 21:43:00,47.5,24.9,29.87,NW,315,0.0,0.0,41,0.00,,,0.00,WeatherCatV1.12B45,2013-01-12 05:43:00,
2013-01-11 21:48:00,47.3,24.9,29.88,WSW,247,0.0,0.0,41,0.00,,,0.00,WeatherCatV1.12B45,2013-01-12 05:48:00,
2013-01-11 21:53:00,47.1,24.5,29.87,WSW,247,0.0,0.0,41,0.00,,,0.00,WeatherCatV1.12B45,2013-01-12 05:53:00,
2013-01-11 21:58:00,47.1,24.5,29.87,WNW,292,0.0,0.0,41,0.00,,,0.00,WeatherCatV1.12B45,2013-01-12 05:58:00,
2013-01-11 22:03:00,47.1,25.1,29.87,North,0,0.0,0.0,42,0.00,,,0.00,WeatherCatV1.12B45,2013-01-12 06:03:00,
2013-01-11 22:08:00,46.9,24.9,29.87,NNE,22,0.0,0.0,42,0.00,,,0.00,WeatherCatV1.12B45,2013-01-12 06:08:00,
2013-01-11 22:13:00,46.9,24.9,29.87,NNE,22,0.0,0.0,42,0.00,,,0.00,WeatherCatV1.12B45,2013-01-12 06:13:00,
2013-01-11 22:23:00,46.9,25.5,29.86,NNE,22,0.0,0.0,43,0.00,,,0.00,WeatherCatV1.12B45,2013-01-12 06:23:00,
2013-01-11 22:28:00,46.8,25.3,29.86,North,0,0.9,0.9,43,0.00,,,0.00,WeatherCatV1.12B45,2013-01-12 06:28:00,
2013-01-11 22:33:00,46.8,25.8,29.86,NE,45,4.2,4.2,44,0.00,,,0.00,WeatherCatV1.12B45,2013-01-12 06:33:00,
2013-01-11 22:38:00,46.8,25.8,29.86,NE,45,0.0,0.0,44,0.00,,,0.00,WeatherCatV1.12B45,2013-01-12 06:38:00,
2013-01-11 22:43:00,46.8,26.4,29.86,North,0,0.0,0.0,45,0.00,,,0.00,WeatherCatV1.12B45,2013-01-12 06:43:00,
2013-01-11 22:48:00,46.6,26.2,29.87,NNW,337,1.1,7.2,45,0.00,,,0.00,WeatherCatV1.12B45,2013-01-12 06:48:00,
2013-01-11 22:53:00,46.6,26.2,29.86,NNE,22,1.3,1.3,45,0.00,,,0.00,WeatherCatV1.12B45,2013-01-12 06:53:00,
2013-01-11 22:58:00,46.6,26.2,29.86,NE,45,4.7,4.7,45,0.00,,,0.00,WeatherCatV1.12B45,2013-01-12 06:58:00,
2013-01-11 23:03:00,46.6,26.8,29.86,NE,45,0.0,0.0,46,0.00,,,0.00,WeatherCatV1.12B45,2013-01-12 07:03:00,
2013-01-11 23:08:00,46.6,26.8,29.86,NNE,22,3.1,3.1,46,0.00,,,0.00,WeatherCatV1.12B45,2013-01-12 07:08:00,
2013-01-11 23:13:00,46.4,26.6,29.87,NNE,22,0.0,0.0,46,0.00,,,0.00,WeatherCatV1.12B45,2013-01-12 07:13:00,
2013-01-11 23:18:00,46.2,26.4,29.86,North,0,0.0,0.0,46,0.00,,,0.00,WeatherCatV1.12B45,2013-01-12 07:18:00,
2013-01-11 23:23:00,46.2,26.4,29.87,WSW,247,0.0,0.0,46,0.00,,,0.00,WeatherCatV1.12B45,2013-01-12 07:23:00,
2013-01-11 23:28:00,46.2,26.4,29.87,WSW,247,0.0,0.0,46,0.00,,,0.00,WeatherCatV1.12B45,2013-01-12 07:28:00,
2013-01-11 23:38:00,46.0,26.8,29.87,South,180,0.0,0.0,47,0.00,,,0.00,WeatherCatV1.12B45,2013-01-12 07:38:00,
2013-01-11 23:43:00,46.0,26.8,29.86,South,180,0.0,0.0,47,0.00,,,0.00,WeatherCatV1.12B45,2013-01-12 07:43:00,
2013-01-11 23:48:00,46.0,26.8,29.87,SSW,202,0.0,0.0,47,0.00,,,0.00,WeatherCatV1.12B45,2013-01-12 07:48:00,
2013-01-11 23:53:00,46.0,27.4,29.87,SSE,157,0.0,0.0,48,0.00,,,0.00,WeatherCatV1.12B45,2013-01-12 07:53:00,
2013-01-11 23:58:00,45.9,27.2,29.87,SSE,157,0.0,0.0,48,0.00,,,0.00,WeatherCatV1.12B45,2013-01-12 07:58:00,